Weather History for Fairmont, MN

Change the Weather History Date:

Monday, March 31, 2014

  Actual Average Record
Temperature  
Mean Temperature 46 °F -  
Max Temperature 68 °F 48 °F 79 °F (1986)
Min Temperature 24 °F 29 °F 3 °F (1969)
Degree Days  
Heating Degree Days 19    
Moisture  
Dew Point 35 °F    
Average Humidity 65    
Maximum Humidity 80    
Minimum Humidity 40    
Precipitation  
Precipitation 0.02 in - - ()
Sea Level Pressure  
Sea Level Pressure 29.52 in    
Wind  
Wind Speed 22 mph (South)    
Max Wind Speed 34 mph    
Max Gust Speed 41 mph    
Visibility 10 miles    
Events Thunderstorm    
Averages and records for this station are not official NWS values.
T = Trace of Precipitation, MM = Missing Value Source: NWS Daily Summary

Daily Weather History Graph

Daily Weather History Graph

Search for Another Location

Airport:

Trip Planner

Search our weather history database for the weather conditions in past years. The results will help you decide how hot, cold, wet, or windy it might be!

Date:

Astronomy

Mar. 31, 2014 Rise Set
Actual Time 7:01 AM CDT 7:43 PM CDT
Civil Twilight 6:32 AM CDT 8:12 PM CDT
Nautical Twilight 5:57 AM CDT 8:46 PM CDT
Astronomical Twilight 5:22 AM CDT 9:22 PM CDT
Moon 7:23 AM CDT (3/31) 9:05 PM CDT (3/31)
Length of Visible Light 13h 40m
Length of Day
12h 42m
New Moon, 1% of the Moon is Illuminated
Mar 31
New Moon
Apr 7
First Quarter
Apr 15
Full
Apr 22
Last Quarter
Apr 29
New

Hourly Weather History & Observations

Time (CDT) Temp. Windchill Dew Point Humidity Pressure Visibility Wind Dir Wind Speed Gust Speed Precip Events Conditions
12:15 AM 51.8 °F - 35.6 °F 54% 29.70 in 10.0 mi SSE 19.6 mph - N/A   Clear
12:35 AM 50.0 °F - 35.6 °F 58% 29.70 in 10.0 mi SSE 19.6 mph 23.0 mph N/A   Clear
12:55 AM 50.0 °F - 35.6 °F 58% 29.70 in 10.0 mi SSE 19.6 mph - N/A   Clear
1:15 AM 48.2 °F - 35.6 °F 62% 29.69 in 10.0 mi SSE 17.3 mph - N/A   Clear
1:35 AM 48.2 °F - 35.6 °F 62% 29.69 in 10.0 mi SSE 17.3 mph - N/A   Clear
1:55 AM 48.2 °F - 33.8 °F 58% 29.69 in 10.0 mi SSE 17.3 mph 23.0 mph N/A   Clear
2:15 AM 48.2 °F - 33.8 °F 58% 29.68 in 10.0 mi SSE 18.4 mph - N/A   Clear
2:35 AM 48.2 °F - 33.8 °F 58% 29.67 in 10.0 mi SSE 17.3 mph - N/A   Clear
2:55 AM 48.2 °F - 33.8 °F 58% 29.66 in 10.0 mi SSE 18.4 mph - N/A   Clear
3:15 AM 46.4 °F 38.7 °F 33.8 °F 62% 29.65 in 10.0 mi SE 20.7 mph - N/A   Clear
3:35 AM 46.4 °F 39.5 °F 33.8 °F 62% 29.65 in 10.0 mi SE 17.3 mph - N/A   Clear
3:55 AM 46.4 °F 39.2 °F 33.8 °F 62% 29.64 in 10.0 mi SE 18.4 mph 23.0 mph N/A   Clear
4:15 AM 46.4 °F 39.0 °F 33.8 °F 62% 29.63 in 10.0 mi SE 19.6 mph - N/A   Clear
4:35 AM 46.4 °F 38.7 °F 33.8 °F 62% 29.62 in 10.0 mi SE 20.7 mph 24.2 mph N/A   Clear
4:55 AM 46.4 °F 39.2 °F 33.8 °F 62% 29.61 in 10.0 mi SE 18.4 mph - N/A   Partly Cloudy
5:15 AM 48.2 °F - 35.6 °F 62% 29.60 in 10.0 mi SE 20.7 mph 25.3 mph N/A Thunderstorm Mostly Cloudy
5:35 AM 46.4 °F 38.7 °F 37.4 °F 71% 29.61 in 10.0 mi SE 20.7 mph 27.6 mph 0.01 in   Overcast
5:55 AM 46.4 °F 39.5 °F 37.4 °F 71% 29.62 in 10.0 mi SSE 17.3 mph - 0.01 in   Overcast
6:15 AM 48.2 °F - 35.6 °F 62% 29.62 in 10.0 mi SE 17.3 mph - N/A   Overcast
6:35 AM 48.2 °F - 35.6 °F 62% 29.62 in 10.0 mi SE 16.1 mph - N/A   Overcast
6:55 AM 46.4 °F 39.0 °F 37.4 °F 71% 29.62 in 10.0 mi SE 19.6 mph - N/A   Overcast
7:15 AM 46.4 °F 39.2 °F 37.4 °F 71% 29.61 in 10.0 mi SE 18.4 mph - N/A   Overcast
7:35 AM 46.4 °F 39.5 °F 37.4 °F 71% 29.61 in 10.0 mi SSE 17.3 mph - 0.01 in   Overcast
7:55 AM 46.4 °F 39.8 °F 39.2 °F 76% 29.61 in 10.0 mi SE 16.1 mph - 0.01 in   Overcast
8:15 AM 46.4 °F 39.8 °F 39.2 °F 76% 29.59 in 10.0 mi SE 16.1 mph - N/A   Overcast
8:35 AM 46.4 °F 38.5 °F 39.2 °F 76% 29.57 in 10.0 mi SE 21.9 mph 26.5 mph N/A   Overcast
8:55 AM 46.4 °F 39.0 °F 39.2 °F 76% 29.57 in 10.0 mi SE 19.6 mph 27.6 mph N/A   Mostly Cloudy
9:15 AM 48.2 °F - 39.2 °F 71% 29.55 in 10.0 mi SE 23.0 mph - N/A   Partly Cloudy
9:35 AM 48.2 °F - 39.2 °F 71% 29.53 in 10.0 mi SE 24.2 mph 29.9 mph N/A   Partly Cloudy
9:55 AM 48.2 °F - 41.0 °F 76% 29.54 in 10.0 mi SE 20.7 mph 31.1 mph N/A   Partly Cloudy
10:15 AM 48.2 °F - 41.0 °F 76% 29.52 in 10.0 mi SE 21.9 mph 32.2 mph N/A   Partly Cloudy
10:35 AM 50.0 °F - 41.0 °F 71% 29.51 in 10.0 mi SE 28.8 mph 34.5 mph N/A   Clear
10:55 AM 51.8 °F - 42.8 °F 71% 29.50 in 10.0 mi SE 26.5 mph 34.5 mph N/A   Clear
11:15 AM 53.6 °F - 42.8 °F 67% 29.49 in 10.0 mi SSE 29.9 mph 38.0 mph N/A   Clear
11:35 AM 53.6 °F - 42.8 °F 67% 29.47 in 10.0 mi SSE 29.9 mph 35.7 mph N/A   Clear
11:55 AM 55.4 °F - 44.6 °F 67% 29.46 in 10.0 mi SSE 26.5 mph 33.4 mph N/A   Clear
12:15 PM 57.2 °F - 44.6 °F 63% 29.45 in 10.0 mi SSE 25.3 mph 36.8 mph N/A   Clear
12:35 PM 59.0 °F - 46.4 °F 63% 29.43 in 10.0 mi SSE 27.6 mph 36.8 mph N/A   Clear
12:55 PM 60.8 °F - 46.4 °F 59% 29.43 in 10.0 mi SSE 28.8 mph 38.0 mph N/A   Mostly Cloudy
1:15 PM 62.6 °F - 46.4 °F 55% 29.42 in 10.0 mi SSE 31.1 mph 35.7 mph N/A   Scattered Clouds
1:35 PM 62.6 °F - 48.2 °F 59% 29.41 in 10.0 mi South 27.6 mph 40.3 mph N/A   Scattered Clouds
1:55 PM 62.6 °F - 46.4 °F 55% 29.40 in 10.0 mi SSE 34.5 mph 40.3 mph N/A   Partly Cloudy
2:15 PM 64.4 °F - 46.4 °F 52% 29.38 in 10.0 mi SSE 31.1 mph 38.0 mph N/A   Clear
2:35 PM 62.6 °F - 46.4 °F 55% 29.37 in 10.0 mi SSE 25.3 mph 35.7 mph N/A   Clear
2:55 PM 62.6 °F - 46.4 °F 55% 29.35 in 10.0 mi SSE 18.4 mph 31.1 mph N/A   Clear
3:15 PM 66.2 °F - 48.2 °F 52% 29.33 in 10.0 mi SSE 27.6 mph 32.2 mph N/A   Clear
3:35 PM 66.2 °F - 46.4 °F 49% 29.32 in 10.0 mi SSE 27.6 mph 40.3 mph N/A   Clear
3:55 PM 68.0 °F - 48.2 °F 49% 29.30 in 10.0 mi SSE 33.4 mph 39.1 mph N/A   Partly Cloudy
4:15 PM 66.2 °F - 46.4 °F 49% 29.30 in 10.0 mi SSE 26.5 mph 33.4 mph N/A   Mostly Cloudy
4:35 PM 66.2 °F - 41.0 °F 40% 29.34 in 10.0 mi WSW 25.3 mph 33.4 mph N/A   Mostly Cloudy
4:55 PM 62.6 °F - 39.2 °F 42% 29.35 in 10.0 mi SW 26.5 mph 32.2 mph N/A   Partly Cloudy
5:15 PM 57.2 °F - 37.4 °F 48% 29.36 in 10.0 mi SW 26.5 mph 36.8 mph N/A   Clear
5:35 PM 53.6 °F - 35.6 °F 51% 29.36 in 10.0 mi WSW 26.5 mph 35.7 mph N/A   Clear
5:55 PM 48.2 °F - 33.8 °F 58% 29.38 in 10.0 mi WSW 26.5 mph 31.1 mph N/A   Clear
6:15 PM 42.8 °F 32.7 °F 30.2 °F 61% 29.39 in 10.0 mi SW 27.6 mph 33.4 mph N/A   Clear
6:35 PM 39.2 °F 29.3 °F 30.2 °F 70% 29.42 in 10.0 mi SW 20.7 mph 32.2 mph N/A   Scattered Clouds
6:55 PM 37.4 °F 25.9 °F 28.4 °F 70% 29.45 in 10.0 mi SW 25.3 mph 34.5 mph N/A   Overcast
7:15 PM 35.6 °F 23.0 °F 26.6 °F 70% 29.46 in 10.0 mi SW 27.6 mph 33.4 mph N/A   Overcast
7:35 PM 32.0 °F 18.4 °F 24.8 °F 75% 29.47 in 10.0 mi SW 26.5 mph 39.1 mph N/A   Overcast
7:55 PM 30.2 °F 15.7 °F 24.8 °F 80% 29.47 in 10.0 mi SW 27.6 mph 36.8 mph N/A   Overcast
8:15 PM 28.4 °F 12.5 °F 23.0 °F 80% 29.48 in 6.0 mi SW 31.1 mph 41.4 mph N/A   Overcast
8:35 PM 28.4 °F 13.8 °F 23.0 °F 80% 29.47 in 8.0 mi SW 25.3 mph 35.7 mph N/A   Overcast
8:55 PM 26.6 °F 10.6 °F 21.2 °F 80% 29.47 in 10.0 mi SW 28.8 mph 39.1 mph N/A   Overcast
9:15 PM 26.6 °F 10.3 °F 21.2 °F 80% 29.48 in 10.0 mi SW 29.9 mph 40.3 mph N/A   Overcast
9:35 PM 26.6 °F 10.6 °F 21.2 °F 80% 29.50 in 10.0 mi WSW 28.8 mph 38.0 mph N/A   Overcast
9:55 PM 26.6 °F 11.1 °F 21.2 °F 80% 29.51 in 10.0 mi WSW 26.5 mph 33.4 mph N/A   Overcast
10:15 PM 28.4 °F 13.0 °F 23.0 °F 80% 29.52 in 10.0 mi West 28.8 mph 39.1 mph N/A   Overcast
10:35 PM 28.4 °F 13.0 °F 21.2 °F 74% 29.53 in 10.0 mi West 28.8 mph 36.8 mph N/A   Overcast
10:55 PM 26.6 °F 11.7 °F 21.2 °F 80% 29.54 in 7.0 mi West 24.2 mph 31.1 mph N/A   Overcast
11:15 PM 24.8 °F 9.0 °F 19.4 °F 80% 29.55 in 9.0 mi West 25.3 mph 36.8 mph N/A   Overcast
11:35 PM 24.8 °F 9.0 °F 19.4 °F 80% 29.57 in 5.0 mi West 25.3 mph 32.2 mph N/A   Overcast
11:55 PM 24.8 °F 7.6 °F 19.4 °F 80% 29.58 in 8.0 mi WNW 31.1 mph 41.4 mph N/A   Overcast